QPF
0.01 0.01 0.02 0.05 0.08 0.10 0.12 0.11 0.08 0.05 0.01 0.00 0.01 0.01 0.02 0.02 0.02 0.05 0.03 0.05 0.07 0.04 0.01 0.01 0.01 0.01 0.02 0.04 0.04 0.05 0.11 0.09 0.08 0.06 0.04 0.04 0.03 0.01 0.02 0.06 0.02 0.00 0.01 0.01 0.01 0.02 0.01 0.00 0.00 0.01 0.04 0.01 0.00 0.00
0.01 0.01 0.03 0.06 0.08 0.09 0.08 0.07 0.06 0.05 0.02 0.00 0.00 0.00 0.01 0.01 0.02 0.04 0.04 0.03 0.08 0.06 0.02 0.01 0.00 0.00 0.00 0.01 0.02 0.05 0.10 0.04 0.02 0.04 0.04 0.04 0.03 0.01 0.01 0.02 0.04 0.02 0.00 0.01 0.00 0.00 0.00 0.00 0.02 0.01 0.00 0.00 0.00 0.00
0.01 0.02 0.02 0.04 0.06 0.07 0.06 0.03 0.02 0.01 0.01 0.00 0.00 0.00 0.01 0.02 0.02 0.05 0.02 0.03 0.08 0.06 0.06 0.02 0.01 0.00 0.00 0.01 0.03 0.07 0.04 0.11 0.06 0.04 0.07 0.05 0.04 0.02 0.02 0.01 0.02 0.01 0.00 0.02 0.03 0.01 0.00 0.00 0.00 0.00 0.00 0.00 0.00 0.00
0.05 0.03 0.01 0.00 0.01 0.02 0.02 0.01 0.00 0.00 0.00 0.00 0.01 0.01 0.02 0.03 0.05 0.06 0.06 0.05 0.06 0.07 0.06 0.01 0.00 0.00 0.00 0.02 0.03 0.02 0.02 0.04 0.05 0.05 0.07 0.07 0.04 0.01 0.02 0.01 0.00 0.00 0.00 0.00 0.01 0.00 0.00 0.00 0.00 0.00 0.00 0.00 0.00 0.00
0.06 0.01 0.00 0.00 0.00 0.01 0.01 0.00 0.00 0.00 0.00 0.00 0.02 0.04 0.05 0.05 0.06 0.08 0.05 0.04 0.04 0.05 0.11 0.05 0.00 0.00 0.00 0.01 0.02 0.04 0.05 0.07 0.11 0.06 0.04 0.03 0.02 0.02 0.02 0.02 0.01 0.00 0.00 0.01 0.02 0.01 0.00 0.01 0.00 0.00 0.00 0.00 0.00 0.00
0.03 0.01 0.00 0.01 0.00 0.00 0.00 0.00 0.00 0.01 0.01 0.01 0.04 0.06 0.08 0.09 0.10 0.19 0.29 0.13 0.05 0.05 0.10 0.08 0.03 0.00 0.00 0.01 0.03 0.04 0.07 0.14 0.15 0.11 0.04 0.02 0.01 0.04 0.05 0.03 0.01 0.01 0.00 0.00 0.02 0.00 0.00 0.00 0.00 0.00 0.00 0.00 0.00 0.00
0.01 0.01 0.02 0.01 0.01 0.01 0.01 0.00 0.00 0.00 0.01 0.02 0.08 0.12 0.09 0.13 0.16 0.12 0.12 0.06 0.08 0.11 0.18 0.11 0.04 0.00 0.00 0.01 0.04 0.05 0.07 0.10 0.17 0.15 0.09 0.03 0.03 0.06 0.04 0.02 0.02 0.00 0.00 0.00 0.00 0.00 0.00 0.00 0.00 0.00 0.00 0.00 0.00 0.00
0.02 0.01 0.01 0.03 0.00 0.01 0.00 0.00 0.01 0.01 0.01 0.05 0.10 0.11 0.09 0.13 0.08 0.07 0.03 0.00 0.03 0.12 0.10 0.07 0.04 0.02 0.00 0.01 0.02 0.03 0.05 0.06 0.04 0.03 0.01 0.01 0.03 0.06 0.07 0.01 0.00 0.00 0.00 0.00 0.00 0.00 0.00 0.00 0.00 0.00 0.00 0.00 0.00 0.00
0.07 0.05 0.06 0.07 0.01 0.01 0.00 0.00 0.00 0.01 0.02 0.07 0.11 0.19 0.32 0.21 0.15 0.07 0.03 0.01 0.03 0.07 0.04 0.02 0.02 0.02 0.00 0.00 0.01 0.02 0.03 0.04 0.03 0.02 0.04 0.05 0.03 0.04 0.03 0.00 0.00 0.00 0.00 0.00 0.00 0.00 0.00 0.00 0.00 0.00 0.00 0.00 0.00 0.00
0.09 0.04 0.03 0.02 0.00 0.00 0.00 0.01 0.01 0.02 0.07 0.17 0.29 0.40 0.28 0.07 0.05 0.23 0.26 0.20 0.18 0.07 0.03 0.01 0.02 0.03 0.01 0.02 0.02 0.03 0.03 0.02 0.04 0.05 0.07 0.05 0.07 0.01 0.00 0.00 0.00 0.00 0.00 0.00 0.00 0.00 0.00 0.00 0.00 0.00 0.00 0.00 0.00 0.01
0.09 0.04 0.04 0.06 0.05 0.03 0.01 0.01 0.03 0.06 0.11 0.19 0.23 0.25 0.07 0.09 0.13 0.16 0.14 0.12 0.09 0.03 0.01 0.01 0.02 0.02 0.01 0.06 0.04 0.04 0.03 0.03 0.02 0.03 0.04 0.05 0.02 0.01 0.00 0.00 0.00 0.00 0.00 0.00 0.00 0.00 0.00 0.00 0.01 0.00 0.00 0.01 0.01 0.01
0.06 0.04 0.02 0.04 0.06 0.08 0.06 0.05 0.03 0.02 0.06 0.06 0.16 0.06 0.05 0.08 0.07 0.04 0.03 0.02 0.00 0.01 0.00 0.01 0.01 0.02 0.01 0.03 0.05 0.04 0.04 0.02 0.05 0.01 0.02 0.03 0.01 0.00 0.00 0.00 0.00 0.00 0.00 0.00 0.00 0.01 0.01 0.01 0.01 0.01 0.01 0.01 0.02 0.03
0.01 0.01 0.01 0.04 0.05 0.07 0.07 0.03 0.00 0.00 0.00 0.00 0.00 0.04 0.03 0.03 0.01 0.01 0.01 0.01 0.01 0.01 0.01 0.01 0.01 0.00 0.00 0.00 0.04 0.05 0.05 0.03 0.01 0.02 0.02 0.01 0.00 0.00 0.00 0.00 0.00 0.00 0.00 0.00 0.00 0.01 0.02 0.02 0.02 0.02 0.02 0.03 0.03 0.03
0.00 0.00 0.00 0.00 0.01 0.03 0.01 0.01 0.00 0.00 0.00 0.00 0.00 0.00 0.00 0.00 0.00 0.00 0.01 0.01 0.00 0.00 0.01 0.01 0.03 0.03 0.04 0.09 0.16 0.13 0.02 0.01 0.01 0.01 0.01 0.01 0.01 0.00 0.00 0.00 0.00 0.00 0.00 0.01 0.01 0.01 0.01 0.01 0.02 0.02 0.02 0.03 0.03 0.02
0.00 0.00 0.00 0.00 0.00 0.00 0.00 0.00 0.00 0.00 0.00 0.00 0.00 0.00 0.00 0.01 0.01 0.01 0.00 0.00 0.00 0.00 0.01 0.03 0.07 0.12 0.07 0.09 0.07 0.04 0.01 0.01 0.01 0.01 0.01 0.01 0.01 0.01 0.01 0.01 0.00 0.01 0.01 0.01 0.02 0.02 0.02 0.03 0.02 0.02 0.03 0.03 0.03 0.03
0.00 0.00 0.00 0.00 0.00 0.00 0.00 0.00 0.00 0.00 0.00 0.00 0.00 0.01 0.01 0.01 0.01 0.01 0.01 0.01 0.01 0.01 0.02 0.07 0.09 0.11 0.05 0.01 0.00 0.01 0.01 0.01 0.01 0.01 0.01 0.01 0.01 0.01 0.01 0.01 0.01 0.01 0.02 0.02 0.03 0.03 0.03 0.03 0.02 0.02 0.02 0.02 0.01 0.01
0.00 0.00 0.00 0.00 0.00 0.00 0.00 0.00 0.00 0.00 0.00 0.00 0.01 0.01 0.01 0.01 0.01 0.01 0.01 0.01 0.01 0.02 0.02 0.01 0.00 0.01 0.00 0.00 0.00 0.00 0.01 0.02 0.02 0.02 0.02 0.01 0.01 0.01 0.02 0.02 0.02 0.02 0.02 0.02 0.02 0.02 0.01 0.01 0.01 0.00 0.00 0.00 0.00 0.00
0.00 0.00 0.00 0.00 0.00 0.00 0.00 0.00 0.00 0.00 0.00 0.01 0.01 0.02 0.01 0.01 0.01 0.01 0.01 0.01 0.01 0.00 0.00 0.00 0.00 0.00 0.00 0.00 0.01 0.02 0.02 0.03 0.03 0.02 0.02 0.03 0.03 0.03 0.03 0.02 0.02 0.02 0.02 0.01 0.01 0.01 0.00 0.00 0.00 0.00 0.00 0.00 0.00 0.00
0.00 0.00 0.00 0.00 0.00 0.00 0.00 0.00 0.00 0.00 0.01 0.01 0.01 0.01 0.01 0.01 0.01 0.02 0.01 0.00 0.00 0.00 0.00 0.00 0.00 0.00 0.01 0.02 0.01 0.02 0.03 0.02 0.02 0.02 0.02 0.03 0.02 0.02 0.02 0.02 0.02 0.01 0.01 0.00 0.00 0.00 0.00 0.00 0.00 0.00 0.00 0.00 0.00 0.00
0.00 0.00 0.00 0.00 0.00 0.00 0.00 0.00 0.00 0.00 0.01 0.01 0.01 0.01 0.01 0.01 0.01 0.01 0.00 0.00 0.00 0.00 0.00 0.00 0.02 0.03 0.03 0.04 0.02 0.02 0.02 0.01 0.01 0.01 0.02 0.02 0.01 0.01 0.01 0.01 0.00 0.00 0.00 0.00 0.00 0.00 0.00 0.00 0.00 0.00 0.00 0.00 0.00 0.00
0.00 0.00 0.00 0.00 0.00 0.00 0.00 0.00 0.00 0.01 0.03 0.02 0.02 0.00 0.01 0.01 0.01 0.00 0.00 0.00 0.00 0.01 0.03 0.04 0.04 0.05 0.04 0.04 0.03 0.02 0.02 0.01 0.01 0.01 0.00 0.00 0.00 0.00 0.00 0.00 0.00 0.00 0.00 0.00 0.00 0.00 0.00 0.00 0.00 0.00 0.00 0.00 0.00 0.00
0.00 0.00 0.00 0.00 0.00 0.00 0.00 0.00 0.00 0.01 0.00 0.01 0.01 0.00 0.01 0.02 0.01 0.01 0.00 0.00 0.02 0.04 0.04 0.04 0.03 0.02 0.01 0.01 0.01 0.00 0.00 0.00 0.00 0.00 0.00 0.00 0.00 0.00 0.00 0.00 0.00 0.00 0.00 0.00 0.00 0.00 0.00 0.00 0.00 0.00 0.00 0.00 0.00 0.00
0.00 0.00 0.00 0.00 0.00 0.00 0.00 0.00 0.00 0.00 0.00 0.00 0.00 0.00 0.00 0.00 0.00 0.00 0.00 0.00 0.02 0.03 0.02 0.01 0.01 0.00 0.00 0.00 0.00 0.00 0.00 0.00 0.00 0.00 0.00 0.00 0.00 0.00 0.00 0.00 0.00 0.00 0.00 0.00 0.00 0.00 0.00 0.00 0.00 0.00 0.00 0.00 0.00 0.00
0.00 0.00 0.00 0.00 0.00 0.00 0.00 0.00 0.00 0.00 0.00 0.00 0.00 0.00 0.00 0.00 0.00 0.00 0.00 0.01 0.01 0.02 0.01 0.01 0.00 0.00 0.00 0.00 0.00 0.00 0.00 0.00 0.00 0.00 0.00 0.00 0.00 0.00 0.00 0.00 0.00 0.00 0.00 0.00 0.00 0.00 0.00 0.00 0.00 0.00 0.00 0.00 0.00 0.00
0.00 0.00 0.00 0.00 0.00 0.00 0.00 0.00 0.00 0.00 0.00 0.00 0.00 0.00 0.00 0.00 0.00 0.00 0.00 0.01 0.01 0.01 0.01 0.00 0.00 0.00 0.00 0.00 0.00 0.00 0.00 0.00 0.00 0.00 0.00 0.00 0.00 0.00 0.00 0.00 0.00 0.00 0.00 0.00 0.00 0.00 0.00 0.00 0.00 0.00 0.00 0.00 0.00 0.00
0.00 0.00 0.00 0.00 0.00 0.00 0.00 0.00 0.00 0.00 0.00 0.00 0.00 0.00 0.00 0.00 0.00 0.00 0.00 0.01 0.01 0.01 0.01 0.00 0.00 0.00 0.00 0.00 0.00 0.00 0.00 0.00 0.00 0.00 0.00 0.00 0.00 0.00 0.00 0.00 0.00 0.00 0.00 0.00 0.00 0.00 0.00 0.00 0.00 0.00 0.00 0.00 0.00 0.00
0.00 0.00 0.00 0.00 0.00 0.00 0.00 0.00 0.00 0.00 0.00 0.00 0.00 0.00 0.00 0.00 0.00 0.01 0.01 0.01 0.00 0.00 0.00 0.00 0.00 0.00 0.00 0.00 0.00 0.00 0.00 0.00 0.00 0.00 0.00 0.00 0.00 0.00 0.00 0.00 0.00 0.00 0.00 0.00 0.00 0.00 0.00 0.00 0.00 0.00 0.00 0.00 0.00 0.00
0.00 0.00 0.00 0.00 0.00 0.00 0.00 0.00 0.00 0.00 0.00 0.00 0.00 0.00 0.00 0.00 0.01 0.01 0.01 0.01 0.00 0.00 0.00 0.00 0.00 0.00 0.00 0.00 0.00 0.00 0.00 0.00 0.00 0.00 0.00 0.00 0.00 0.00 0.00 0.00 0.00 0.00 0.00 0.00 0.00 0.00 0.00 0.00 0.00 0.00 0.00 0.00 0.00 0.00
0.00 0.00 0.00 0.00 0.00 0.00 0.00 0.00 0.00 0.00 0.00 0.00 0.00 0.00 0.00 0.01 0.01 0.01 0.01 0.00 0.00 0.00 0.00 0.00 0.00 0.00 0.00 0.00 0.00 0.00 0.00 0.00 0.00 0.00 0.00 0.00 0.00 0.00 0.00 0.00 0.00 0.00 0.00 0.00 0.00 0.00 0.00 0.00 0.00 0.00 0.00 0.00 0.00 0.00
0.00 0.00 0.00 0.00 0.00 0.00 0.01 0.01 0.01 0.01 0.00 0.00 0.00 0.00 0.00 0.01 0.02 0.01 0.01 0.00 0.00 0.00 0.00 0.00 0.00 0.00 0.00 0.00 0.00 0.00 0.00 0.00 0.00 0.00 0.00 0.00 0.00 0.00 0.00 0.00 0.00 0.00 0.00 0.00 0.00 0.00 0.00 0.00 0.00 0.00 0.00 0.00 0.00 0.00
0.00 0.00 0.00 0.00 0.00 0.01 0.01 0.01 0.00 0.00 0.00 0.00 0.00 0.00 0.01 0.01 0.01 0.01 0.00 0.00 0.00 0.00 0.00 0.00 0.00 0.00 0.00 0.00 0.00 0.00 0.00 0.00 0.00 0.00 0.00 0.00 0.00 0.00 0.00 0.00 0.00 0.00 0.00 0.00 0.00 0.00 0.00 0.00 0.00 0.00 0.00 0.00 0.00 0.00
0.00 0.00 0.00 0.00 0.01 0.00 0.01 0.01 0.00 0.00 0.00 0.00 0.00 0.00 0.00 0.00 0.00 0.00 0.00 0.00 0.00 0.00 0.00 0.00 0.00 0.00 0.00 0.00 0.00 0.00 0.00 0.00 0.00 0.00 0.00 0.00 0.00 0.00 0.00 0.00 0.00 0.00 0.00 0.00 0.00 0.00 0.00 0.00 0.00 0.00 0.00 0.00 0.00 0.00
0.00 0.00 0.00 0.00 0.00 0.00 0.00 0.00 0.00 0.00 0.00 0.00 0.00 0.00 0.00 0.00 0.00 0.00 0.00 0.00 0.01 0.01 0.00 0.00 0.00 0.00 0.00 0.00 0.00 0.00 0.00 0.00 0.00 0.00 0.00 0.00 0.00 0.00 0.00 0.00 0.00 0.00 0.00 0.00 0.00 0.00 0.00 0.00 0.00 0.00 0.00 0.00 0.00 0.00
MSLP
1007.77 1007.37 1006.97 1006.58 1006.22 1005.93 1005.74 1005.70 1005.84 1006.55 1007.55 1008.21 1009.01 1009.77 1010.40 1011.08 1011.84 1012.50 1012.33 1012.78 1013.41 1012.97 1011.74 1011.37 1010.68 1010.49 1010.59 1009.84 1010.14 1010.72 1011.41 1011.20 1011.36 1010.53 1008.85 1007.29 1006.07 1005.10 1004.18 1004.24 1003.81 1004.27 1004.89 1004.68 1004.64 1003.69 1002.54 1001.60 1001.56 1002.16 1002.84 1002.80 1003.13 1003.50
1006.19 1005.72 1005.27 1004.82 1004.36 1003.93 1003.70 1003.53 1003.69 1004.40 1005.60 1006.74 1007.69 1008.60 1009.41 1010.26 1011.07 1011.88 1011.86 1011.82 1012.87 1013.08 1011.63 1011.29 1010.68 1010.30 1010.32 1009.98 1010.58 1010.87 1010.29 1010.04 1009.30 1008.83 1007.42 1007.13 1006.12 1005.42 1004.44 1003.85 1004.16 1003.87 1003.59 1003.15 1003.21 1002.79 1002.27 1001.87 1002.58 1003.48 1003.94 1004.00 1004.19 1004.23
1004.65 1004.13 1003.58 1003.06 1002.59 1002.17 1002.08 1002.27 1002.40 1002.81 1004.06 1005.43 1006.49 1007.49 1008.40 1009.30 1010.10 1010.85 1010.90 1011.20 1012.36 1012.80 1012.10 1011.15 1010.10 1009.77 1009.72 1010.01 1010.04 1010.61 1009.92 1010.30 1008.94 1007.71 1007.93 1007.03 1006.33 1005.69 1004.97 1003.65 1003.31 1002.86 1003.99 1003.01 1003.33 1002.14 1002.68 1002.33 1003.30 1004.12 1004.69 1004.96 1005.02 1005.09
1002.96 1002.30 1001.74 1001.27 1001.01 1000.83 1000.66 1000.73 1001.45 1002.07 1003.17 1004.37 1005.47 1006.43 1007.40 1008.33 1009.08 1009.97 1010.44 1010.72 1011.56 1011.89 1011.47 1009.19 1008.91 1008.97 1008.81 1008.94 1009.22 1009.98 1009.75 1009.56 1009.28 1008.97 1008.19 1007.65 1006.64 1005.43 1004.88 1003.97 1003.25 1002.72 1003.06 1002.83 1002.92 1002.72 1002.65 1002.71 1004.02 1005.15 1005.54 1005.70 1005.90 1006.06
1001.55 1000.84 1000.14 999.65 999.58 999.52 999.42 999.95 1000.73 1001.55 1002.52 1003.52 1004.52 1005.46 1006.33 1007.17 1008.12 1009.19 1009.92 1010.16 1010.64 1010.57 1009.29 1008.74 1007.84 1007.47 1007.63 1008.02 1008.36 1009.09 1009.76 1010.01 1009.95 1008.96 1008.73 1007.88 1006.71 1006.25 1005.51 1004.98 1003.96 1003.31 1003.12 1003.44 1003.62 1004.27 1004.30 1004.24 1005.33 1006.22 1006.57 1006.94 1007.34 1007.61
1000.30 999.60 999.12 998.67 998.43 998.47 998.66 999.33 1000.04 1000.92 1001.81 1002.71 1003.65 1004.47 1005.30 1006.14 1007.30 1008.36 1008.78 1009.65 1009.93 1010.15 1010.47 1008.97 1007.21 1006.42 1006.70 1007.19 1007.75 1008.47 1009.20 1009.79 1009.72 1009.19 1008.78 1007.74 1007.16 1006.94 1006.37 1005.23 1004.47 1004.73 1005.33 1005.91 1005.72 1006.63 1006.69 1006.57 1006.78 1007.77 1008.42 1008.91 1009.26 1009.36
999.39 999.01 998.46 997.92 997.53 997.58 997.93 998.63 999.39 1000.22 1001.13 1002.04 1002.96 1003.75 1004.43 1005.29 1006.42 1006.76 1006.34 1006.66 1008.85 1010.65 1010.92 1009.11 1007.26 1006.23 1006.67 1007.17 1007.73 1008.45 1008.96 1009.25 1009.76 1009.27 1008.92 1008.05 1007.43 1007.42 1007.11 1006.62 1007.28 1007.35 1007.50 1007.44 1008.01 1007.99 1007.69 1008.54 1009.07 1010.05 1010.37 1010.53 1010.66 1010.96
998.96 998.48 997.90 997.44 997.16 997.02 997.17 997.86 998.70 999.60 1000.52 1001.47 1002.47 1003.51 1004.47 1005.23 1006.17 1006.55 1006.21 1006.64 1008.09 1009.94 1009.51 1007.78 1006.48 1006.42 1006.53 1006.87 1007.34 1007.92 1008.39 1008.79 1008.70 1008.35 1008.47 1007.67 1007.48 1007.92 1008.57 1008.88 1008.79 1009.29 1009.35 1009.14 1009.80 1009.97 1010.13 1010.56 1011.14 1011.56 1011.80 1011.98 1012.09 1012.68
998.47 998.06 997.51 996.71 995.83 996.44 996.83 997.35 998.15 999.17 1000.20 1001.21 1002.00 1003.24 1005.16 1005.81 1006.29 1005.88 1006.56 1007.46 1007.98 1008.46 1007.83 1007.06 1006.07 1005.88 1006.40 1006.41 1006.82 1007.30 1007.77 1008.20 1008.38 1008.06 1008.13 1008.33 1008.16 1009.51 1010.95 1010.98 1011.37 1011.92 1011.72 1011.47 1011.34 1010.85 1011.34 1011.88 1012.27 1012.58 1012.88 1013.18 1013.48 1014.28
998.21 997.74 997.15 996.38 995.91 996.25 996.86 997.46 998.26 999.14 1000.15 1001.33 1002.84 1004.24 1005.00 1005.37 1005.84 1006.75 1007.93 1008.13 1008.16 1007.63 1006.89 1006.06 1005.30 1005.89 1006.08 1006.26 1006.48 1006.95 1007.31 1007.12 1007.47 1007.96 1008.39 1008.40 1010.29 1011.79 1012.44 1013.08 1013.57 1013.55 1013.22 1013.14 1012.66 1012.28 1012.97 1013.13 1013.55 1014.20 1014.63 1015.02 1015.33 1015.90
998.42 997.99 997.29 996.16 996.08 996.52 997.30 997.91 998.65 999.77 1000.72 1002.02 1003.13 1003.56 1004.17 1005.04 1006.10 1006.87 1007.16 1007.23 1007.23 1006.70 1005.90 1005.53 1005.39 1005.96 1006.91 1006.48 1006.38 1006.33 1006.61 1006.60 1006.73 1007.39 1008.20 1008.67 1010.80 1012.85 1013.63 1014.19 1014.73 1014.83 1014.74 1014.77 1014.86 1015.09 1015.25 1015.27 1015.20 1015.57 1016.21 1016.66 1017.03 1017.39
999.01 998.53 997.96 997.48 997.08 997.62 998.35 999.02 999.56 1000.15 1001.06 1001.60 1002.49 1003.95 1004.68 1005.13 1005.52 1005.82 1006.00 1006.18 1005.80 1005.46 1005.75 1005.71 1005.72 1005.99 1006.65 1006.87 1006.86 1006.47 1006.45 1006.71 1006.59 1007.38 1008.09 1009.35 1012.68 1014.04 1014.81 1015.54 1015.86 1016.06 1016.24 1016.39 1016.52 1016.58 1016.76 1016.80 1017.05 1017.38 1017.83 1018.27 1018.74 1019.05
999.51 999.33 999.14 998.89 998.71 998.83 999.44 999.80 1000.06 1000.93 1000.84 1001.62 1002.84 1004.26 1004.37 1005.72 1005.50 1005.53 1005.88 1005.91 1005.93 1006.24 1006.37 1006.54 1006.60 1006.80 1007.41 1007.41 1007.38 1007.13 1006.99 1007.00 1007.37 1008.16 1009.38 1011.96 1013.84 1014.94 1015.59 1016.22 1016.88 1017.21 1017.56 1017.76 1018.08 1018.24 1018.36 1018.62 1018.91 1019.15 1019.18 1019.64 1020.00 1020.24
1000.20 1000.10 1000.03 1000.11 1000.22 1000.36 1000.83 1001.33 1001.37 1001.24 1001.67 1002.57 1003.79 1005.43 1005.92 1006.48 1006.86 1007.04 1006.95 1006.95 1007.59 1007.42 1007.18 1007.19 1007.31 1007.37 1007.87 1008.02 1008.02 1007.67 1008.14 1008.11 1008.40 1009.43 1011.43 1013.67 1015.24 1016.29 1016.99 1017.48 1017.86 1018.42 1018.73 1018.96 1019.35 1019.52 1019.70 1019.98 1020.20 1020.37 1020.64 1020.87 1021.11 1021.40
1000.93 1000.86 1001.07 1001.63 1001.69 1001.57 1001.64 1001.79 1001.73 1001.88 1003.17 1004.32 1005.21 1006.87 1007.87 1008.54 1008.65 1008.66 1008.53 1008.32 1008.50 1008.37 1007.95 1007.74 1007.89 1008.06 1008.32 1008.69 1008.67 1008.86 1009.03 1009.14 1010.15 1011.62 1013.66 1015.49 1016.69 1017.42 1018.04 1018.58 1019.00 1019.36 1019.68 1019.87 1020.22 1020.47 1020.79 1021.13 1021.24 1021.55 1021.89 1022.05 1022.31 1022.59
1001.29 1001.29 1002.28 1002.34 1002.30 1002.38 1002.37 1002.49 1002.64 1003.57 1005.58 1007.15 1008.44 1008.80 1009.21 1008.97 1009.24 1009.22 1009.13 1009.00 1009.15 1008.85 1008.51 1008.32 1008.21 1008.41 1008.92 1009.01 1009.26 1009.79 1009.78 1010.96 1012.82 1014.36 1015.91 1017.07 1017.96 1018.62 1019.09 1019.53 1019.89 1020.26 1020.55 1020.89 1021.15 1021.43 1021.67 1021.94 1022.21 1022.59 1022.88 1023.08 1023.30 1023.43
1001.53 1001.97 1002.80 1002.80 1002.80 1002.89 1002.80 1003.04 1004.21 1006.07 1007.71 1008.84 1010.07 1010.49 1010.32 1010.44 1010.51 1010.43 1010.27 1010.10 1009.90 1009.14 1008.60 1008.47 1008.56 1009.33 1009.66 1009.96 1011.16 1012.27 1012.84 1014.23 1015.29 1016.31 1017.31 1018.31 1019.01 1019.64 1020.09 1020.45 1020.75 1021.01 1021.28 1021.52 1021.77 1022.05 1022.31 1022.53 1022.59 1022.68 1022.97 1023.42 1023.64 1023.97
1001.70 1002.42 1002.68 1002.78 1002.82 1003.06 1004.11 1004.94 1006.41 1008.05 1009.81 1010.58 1010.81 1011.31 1011.52 1011.58 1011.30 1011.16 1011.01 1010.63 1009.80 1009.46 1009.52 1010.05 1010.23 1010.80 1011.56 1012.16 1013.38 1014.87 1015.66 1016.48 1017.34 1018.12 1018.94 1019.61 1020.11 1020.54 1020.83 1021.09 1021.45 1021.65 1021.84 1022.14 1022.37 1022.56 1022.64 1022.65 1022.73 1023.05 1023.44 1023.77 1023.97 1024.20
1002.26 1002.34 1002.56 1002.95 1002.91 1003.47 1005.09 1006.67 1007.24 1009.04 1010.95 1011.51 1011.91 1012.06 1012.14 1012.37 1012.43 1012.18 1011.84 1011.38 1010.90 1010.57 1010.72 1011.37 1012.37 1013.35 1014.35 1015.01 1015.70 1016.65 1017.49 1018.09 1018.82 1019.63 1020.37 1020.96 1021.29 1021.60 1021.82 1022.01 1022.16 1022.28 1022.46 1022.64 1022.80 1023.04 1023.34 1023.39 1023.37 1023.38 1023.57 1023.66 1023.82 1024.18
1002.87 1002.95 1003.10 1003.05 1002.96 1003.89 1005.99 1007.62 1008.12 1009.42 1010.95 1012.08 1012.38 1012.50 1012.78 1013.05 1013.08 1012.94 1012.77 1012.35 1012.03 1012.27 1013.55 1014.75 1015.93 1016.59 1016.82 1017.30 1017.72 1018.24 1018.84 1019.34 1019.70 1020.26 1021.00 1021.58 1021.91 1022.09 1022.25 1022.38 1022.62 1022.83 1023.04 1023.33 1023.47 1023.45 1023.65 1023.99 1024.38 1024.55 1024.53 1024.51 1024.52 1024.99
1002.81 1003.30 1003.25 1003.04 1003.66 1004.93 1006.71 1007.87 1009.03 1010.60 1011.50 1011.95 1012.53 1012.73 1013.28 1013.63 1013.68 1013.66 1013.61 1013.80 1014.13 1015.73 1017.00 1018.04 1018.42 1018.71 1018.81 1019.04 1019.33 1019.57 1019.79 1019.94 1019.99 1020.37 1021.06 1021.81 1022.43 1022.66 1022.89 1023.05 1023.16 1023.13 1023.31 1023.59 1023.85 1024.33 1024.45 1024.69 1025.05 1025.30 1025.44 1025.71 1025.94 1026.17
1003.14 1003.30 1003.22 1003.55 1004.62 1006.16 1007.66 1008.48 1009.11 1009.96 1010.92 1011.81 1012.25 1012.65 1013.27 1013.91 1014.35 1014.79 1015.23 1015.55 1017.62 1018.92 1018.96 1019.18 1019.46 1019.70 1020.02 1020.32 1020.59 1020.81 1021.13 1021.24 1021.57 1021.89 1022.27 1022.43 1022.54 1022.89 1023.24 1023.50 1023.64 1024.03 1024.29 1024.50 1024.68 1025.01 1025.36 1025.68 1025.92 1026.04 1026.21 1026.47 1026.46 1026.65
1003.65 1003.41 1003.80 1004.51 1005.61 1006.95 1009.03 1009.19 1009.06 1009.46 1010.00 1011.29 1012.00 1012.64 1013.52 1014.31 1015.20 1015.38 1016.76 1018.37 1019.69 1020.53 1020.57 1020.65 1020.87 1021.06 1021.35 1021.76 1021.89 1021.93 1021.94 1021.93 1022.22 1022.67 1023.01 1023.29 1023.65 1023.98 1024.15 1024.39 1024.61 1024.78 1025.04 1025.45 1025.64 1025.80 1026.33 1026.87 1026.98 1026.83 1026.99 1026.89 1026.94 1027.30
1004.63 1005.43 1005.81 1006.00 1006.67 1008.09 1008.81 1009.01 1009.20 1009.64 1010.41 1011.06 1011.95 1013.05 1013.97 1014.60 1015.36 1016.36 1018.06 1019.64 1020.92 1021.10 1021.20 1021.39 1021.35 1021.52 1021.81 1022.02 1022.25 1022.71 1022.89 1023.00 1023.22 1023.58 1023.70 1023.83 1024.20 1024.68 1025.01 1025.32 1025.68 1025.97 1026.09 1026.22 1026.39 1026.65 1026.89 1027.20 1027.50 1027.14 1027.38 1027.30 1027.43 1027.34
1005.69 1008.49 1007.93 1007.93 1008.01 1008.25 1008.90 1009.45 1009.84 1010.18 1011.02 1011.86 1012.68 1013.65 1014.60 1014.84 1015.61 1017.28 1018.75 1020.33 1021.02 1021.43 1021.62 1021.60 1021.52 1021.63 1022.02 1022.65 1023.30 1023.81 1023.81 1023.58 1023.79 1024.28 1024.76 1024.82 1025.01 1025.25 1025.61 1026.05 1026.47 1026.80 1026.81 1026.57 1026.79 1027.02 1027.41 1027.55 1027.59 1027.61 1027.66 1027.62 1027.70 1027.74
1007.98 1009.90 1009.65 1009.30 1009.27 1008.93 1009.34 1009.89 1010.41 1011.07 1011.92 1012.82 1013.85 1014.70 1014.89 1015.31 1016.55 1018.27 1019.58 1020.76 1021.40 1021.92 1022.09 1022.10 1022.07 1022.26 1022.64 1023.11 1023.57 1024.20 1024.70 1024.73 1024.60 1025.06 1025.71 1025.81 1025.82 1025.68 1025.86 1026.14 1026.39 1027.10 1027.70 1027.65 1027.38 1027.30 1027.50 1027.86 1027.91 1028.10 1027.91 1027.93 1028.42 1028.33
1009.74 1010.86 1011.43 1011.77 1011.01 1010.51 1010.96 1011.58 1011.81 1012.24 1012.93 1013.77 1014.50 1015.18 1015.63 1016.74 1018.42 1020.25 1021.30 1021.75 1022.24 1022.87 1023.08 1023.02 1022.76 1022.97 1023.72 1024.50 1025.15 1025.60 1025.91 1026.08 1026.02 1026.43 1026.81 1026.99 1027.12 1027.16 1027.07 1027.08 1027.52 1028.20 1028.33 1028.41 1028.30 1028.13 1028.01 1028.07 1028.15 1028.25 1028.20 1028.09 1028.03 1028.26
1011.84 1012.36 1012.58 1013.21 1013.00 1012.99 1013.11 1013.57 1014.03 1014.65 1015.23 1015.75 1015.74 1016.76 1017.62 1018.69 1020.14 1021.32 1022.18 1023.00 1023.35 1023.77 1024.16 1024.42 1024.40 1024.68 1025.11 1025.63 1025.97 1026.35 1026.77 1027.10 1027.32 1027.29 1027.45 1027.69 1027.98 1028.22 1028.46 1028.73 1029.24 1029.52 1029.15 1029.29 1029.19 1029.01 1028.79 1028.73 1028.61 1028.52 1028.50 1028.48 1028.43 1028.58
1013.03 1013.69 1014.19 1014.85 1014.76 1015.49 1016.35 1016.44 1016.77 1017.56 1018.01 1017.12 1017.35 1018.61 1020.19 1021.68 1022.30 1022.87 1023.48 1023.73 1024.00 1024.26 1024.68 1025.17 1025.71 1026.07 1026.40 1026.67 1026.78 1026.99 1027.15 1027.24 1027.12 1027.32 1027.29 1027.26 1027.60 1028.30 1028.95 1029.10 1029.24 1029.21 1029.13 1029.32 1029.69 1029.50 1029.19 1029.16 1029.12 1029.19 1029.03 1028.81 1028.70 1028.78
1014.28 1014.53 1015.09 1016.22 1016.97 1018.06 1019.09 1018.93 1019.05 1019.10 1019.10 1018.95 1019.68 1020.85 1021.90 1023.18 1023.90 1024.19 1024.22 1024.26 1024.32 1024.79 1025.32 1025.78 1026.11 1026.17 1026.52 1026.74 1027.34 1027.83 1028.32 1028.53 1028.60 1028.34 1027.91 1028.04 1028.47 1029.15 1029.32 1029.42 1029.53 1029.57 1029.65 1029.41 1029.27 1029.12 1029.34 1029.26 1029.06 1029.17 1029.13 1028.83 1028.54 1028.47
1014.73 1014.92 1015.82 1017.29 1018.85 1020.00 1020.18 1020.33 1020.09 1019.86 1019.68 1019.88 1020.41 1021.09 1022.18 1023.59 1024.97 1025.66 1025.67 1025.66 1025.80 1026.00 1026.16 1026.54 1026.85 1027.08 1027.26 1027.42 1027.50 1027.97 1028.41 1029.44 1029.78 1029.74 1029.51 1029.52 1029.65 1029.68 1030.01 1030.19 1030.17 1030.04 1029.81 1029.74 1029.67 1029.46 1029.50 1029.31 1028.96 1028.93 1028.86 1028.85 1028.87 1028.99
1015.33 1015.51 1016.19 1017.66 1019.72 1020.68 1020.51 1020.05 1020.07 1020.35 1020.76 1021.14 1021.68 1022.34 1022.79 1023.23 1024.44 1025.71 1026.90 1026.46 1026.27 1026.31 1027.06 1026.84 1027.05 1027.71 1028.39 1028.76 1028.98 1029.28 1029.44 1029.77 1030.07 1030.24 1030.22 1030.19 1030.15 1030.48 1030.43 1030.44 1030.46 1030.25 1030.11 1030.05 1029.85 1029.74 1029.64 1029.53 1029.31 1029.12 1029.03 1028.92 1028.92 1029.00
1015.96 1016.24 1016.65 1017.38 1018.99 1019.54 1020.12 1019.47 1019.74 1020.73 1021.10 1021.70 1022.68 1023.16 1023.64 1023.81 1024.96 1026.34 1027.62 1027.71 1027.39 1027.01 1027.39 1027.93 1028.46 1028.95 1029.28 1029.36 1029.52 1029.75 1030.04 1030.63 1031.21 1031.28 1031.47 1031.58 1031.73 1031.42 1030.94 1030.37 1030.44 1030.37 1030.40 1030.23 1029.97 1029.81 1029.72 1029.59 1029.41 1029.23 1029.16 1029.11 1029.07 1029.03
Thickness
5314 5316 5318 5321 5325 5328 5329 5330 5329 5323 5316 5312 5308 5304 5303 5303 5303 5305 5317 5319 5320 5331 5353 5363 5375 5379 5384 5401 5398 5405 5399 5404 5404 5422 5445 5466 5475 5486 5496 5494 5498 5493 5488 5493 5498 5501 5510 5544 5543 5535 5535 5542 5543 5542
5321 5324 5327 5331 5335 5338 5340 5342 5340 5335 5326 5318 5313 5309 5307 5306 5306 5308 5315 5322 5321 5327 5352 5357 5369 5378 5385 5396 5393 5393 5412 5415 5434 5438 5462 5460 5470 5478 5491 5493 5494 5492 5503 5508 5512 5517 5532 5539 5529 5526 5527 5529 5531 5533
5330 5334 5338 5341 5345 5348 5349 5347 5346 5343 5334 5325 5319 5315 5313 5311 5311 5315 5323 5328 5323 5324 5338 5352 5370 5381 5388 5392 5397 5391 5409 5407 5432 5449 5444 5459 5459 5472 5472 5494 5497 5509 5497 5507 5503 5528 5521 5530 5525 5522 5519 5520 5523 5525
5340 5344 5347 5350 5352 5354 5356 5355 5350 5346 5339 5332 5326 5323 5320 5319 5321 5321 5324 5329 5328 5333 5338 5372 5381 5386 5393 5396 5399 5397 5406 5413 5419 5426 5436 5442 5455 5475 5477 5489 5496 5506 5504 5510 5511 5519 5523 5526 5514 5508 5508 5511 5512 5512
5346 5351 5355 5358 5358 5358 5360 5358 5353 5349 5343 5338 5334 5331 5329 5329 5328 5327 5328 5332 5335 5345 5365 5376 5392 5399 5400 5400 5404 5402 5401 5403 5404 5420 5421 5434 5457 5462 5470 5477 5486 5501 5503 5501 5504 5500 5504 5507 5500 5495 5494 5495 5493 5490
5353 5356 5359 5361 5362 5361 5361 5358 5357 5353 5349 5345 5341 5340 5338 5338 5335 5332 5333 5335 5339 5347 5348 5368 5394 5405 5405 5405 5405 5405 5402 5399 5404 5413 5420 5439 5449 5452 5452 5473 5487 5484 5481 5477 5485 5472 5475 5481 5484 5474 5470 5467 5463 5464
5357 5358 5360 5361 5363 5363 5362 5360 5358 5357 5355 5351 5348 5347 5346 5345 5342 5344 5359 5367 5351 5341 5343 5366 5386 5405 5403 5403 5402 5399 5400 5401 5398 5406 5410 5427 5441 5443 5451 5461 5448 5453 5454 5458 5451 5455 5466 5452 5453 5442 5441 5441 5441 5439
5358 5359 5359 5358 5358 5362 5363 5361 5360 5360 5359 5357 5354 5350 5348 5348 5346 5350 5361 5363 5357 5346 5356 5380 5397 5401 5405 5402 5401 5405 5400 5402 5406 5416 5418 5436 5442 5439 5432 5427 5437 5433 5434 5441 5432 5433 5434 5431 5423 5419 5419 5418 5418 5410
5359 5358 5358 5361 5366 5362 5362 5363 5362 5362 5361 5359 5358 5354 5343 5343 5346 5359 5359 5357 5358 5361 5369 5384 5399 5402 5404 5410 5411 5407 5406 5402 5408 5418 5419 5424 5435 5421 5392 5407 5403 5395 5401 5408 5413 5424 5419 5411 5408 5406 5403 5400 5397 5387
5360 5359 5359 5360 5361 5361 5361 5361 5361 5362 5362 5358 5353 5347 5348 5351 5352 5351 5346 5347 5352 5363 5379 5393 5411 5398 5407 5408 5409 5410 5407 5416 5415 5411 5406 5415 5385 5377 5381 5379 5377 5380 5387 5390 5397 5409 5395 5396 5391 5382 5377 5373 5371 5365
5359 5356 5356 5360 5360 5359 5359 5360 5361 5359 5359 5356 5352 5358 5359 5357 5354 5352 5360 5368 5366 5378 5392 5399 5406 5394 5391 5400 5407 5416 5409 5419 5423 5423 5415 5420 5393 5368 5370 5369 5366 5366 5370 5370 5369 5366 5365 5366 5369 5365 5355 5350 5347 5344
5357 5356 5354 5355 5358 5357 5356 5356 5359 5363 5363 5367 5367 5359 5358 5360 5366 5376 5379 5377 5390 5401 5391 5393 5399 5400 5395 5396 5398 5412 5412 5413 5419 5413 5420 5421 5363 5357 5354 5351 5352 5352 5350 5349 5350 5350 5348 5347 5344 5340 5335 5328 5323 5320
5359 5358 5356 5355 5358 5358 5356 5359 5363 5364 5372 5373 5367 5362 5373 5358 5375 5387 5384 5391 5391 5380 5382 5380 5386 5388 5384 5389 5393 5399 5400 5412 5409 5406 5402 5368 5353 5347 5344 5344 5338 5337 5335 5333 5330 5329 5328 5324 5321 5318 5316 5310 5306 5304
5362 5361 5361 5360 5357 5358 5357 5357 5362 5369 5373 5372 5367 5348 5362 5362 5361 5365 5369 5371 5358 5363 5372 5374 5377 5382 5378 5382 5386 5397 5386 5393 5402 5403 5378 5347 5333 5327 5326 5327 5326 5320 5318 5317 5313 5311 5309 5306 5304 5301 5298 5294 5291 5287
5364 5363 5362 5358 5358 5361 5363 5365 5369 5372 5366 5358 5361 5348 5341 5337 5339 5341 5344 5352 5351 5356 5366 5373 5375 5380 5379 5374 5378 5380 5384 5397 5387 5374 5343 5327 5320 5318 5315 5312 5310 5307 5304 5303 5300 5296 5292 5289 5287 5284 5280 5277 5272 5268
5367 5368 5361 5361 5363 5363 5365 5368 5371 5367 5352 5339 5330 5337 5335 5344 5342 5343 5346 5351 5350 5355 5362 5370 5375 5377 5371 5379 5382 5375 5399 5385 5351 5335 5321 5314 5308 5305 5303 5300 5298 5294 5292 5288 5284 5281 5278 5275 5272 5267 5263 5259 5255 5252
5371 5370 5362 5364 5366 5367 5370 5372 5364 5348 5337 5331 5321 5321 5328 5330 5331 5335 5339 5343 5346 5359 5373 5376 5379 5363 5375 5375 5359 5347 5350 5332 5324 5318 5311 5303 5298 5293 5290 5287 5285 5282 5279 5276 5274 5270 5267 5264 5262 5260 5256 5250 5246 5241
5374 5369 5368 5368 5369 5370 5363 5360 5348 5338 5320 5320 5322 5320 5321 5323 5330 5334 5336 5341 5354 5361 5365 5353 5365 5358 5356 5358 5344 5322 5317 5312 5305 5300 5295 5289 5286 5282 5280 5277 5273 5271 5268 5265 5262 5259 5257 5256 5253 5248 5242 5238 5234 5230
5372 5373 5372 5370 5372 5370 5357 5345 5345 5326 5313 5313 5314 5317 5319 5319 5322 5327 5332 5338 5346 5352 5355 5350 5341 5335 5324 5321 5315 5307 5301 5297 5291 5284 5278 5273 5270 5267 5264 5262 5260 5258 5255 5253 5252 5248 5243 5240 5240 5237 5233 5230 5226 5220
5368 5370 5370 5371 5374 5368 5348 5337 5338 5328 5316 5309 5310 5312 5312 5313 5317 5320 5324 5332 5338 5337 5323 5315 5307 5305 5306 5302 5299 5294 5289 5286 5283 5276 5270 5265 5263 5261 5259 5257 5253 5249 5247 5242 5239 5237 5233 5227 5220 5214 5211 5209 5205 5197
5372 5371 5372 5375 5370 5361 5347 5338 5327 5315 5310 5311 5310 5313 5310 5311 5313 5316 5320 5322 5317 5303 5294 5288 5285 5286 5287 5285 5283 5282 5280 5281 5282 5279 5272 5263 5256 5253 5250 5247 5244 5242 5239 5234 5228 5219 5215 5209 5202 5195 5189 5182 5175 5169
5373 5373 5376 5374 5366 5354 5342 5338 5330 5327 5322 5316 5316 5317 5313 5310 5308 5307 5310 5306 5287 5278 5283 5283 5281 5280 5277 5275 5273 5271 5268 5266 5262 5259 5255 5254 5253 5248 5242 5237 5232 5225 5219 5214 5209 5202 5194 5187 5179 5173 5166 5158 5152 5146
5371 5376 5376 5371 5363 5355 5337 5339 5342 5343 5341 5329 5327 5321 5316 5311 5305 5312 5296 5285 5275 5271 5272 5272 5270 5269 5265 5262 5261 5261 5261 5260 5256 5250 5246 5241 5235 5230 5225 5220 5214 5209 5202 5194 5188 5181 5170 5156 5151 5147 5140 5137 5132 5124
5366 5358 5359 5365 5364 5347 5348 5348 5353 5351 5346 5343 5335 5323 5318 5317 5315 5306 5289 5278 5268 5269 5269 5267 5268 5266 5264 5262 5259 5253 5250 5248 5243 5237 5234 5230 5223 5215 5208 5202 5194 5187 5180 5173 5165 5157 5148 5139 5129 5129 5121 5117 5111 5108
5367 5336 5352 5354 5360 5360 5356 5351 5349 5353 5345 5340 5334 5329 5319 5324 5317 5303 5291 5276 5271 5267 5266 5267 5268 5266 5261 5254 5246 5239 5237 5238 5233 5224 5216 5213 5207 5200 5192 5184 5174 5165 5159 5155 5146 5138 5128 5121 5116 5111 5106 5102 5097 5094
5343 5329 5347 5354 5358 5366 5366 5359 5355 5350 5342 5332 5323 5319 5323 5325 5315 5301 5288 5273 5268 5263 5261 5260 5260 5257 5253 5248 5241 5232 5223 5219 5218 5210 5199 5194 5189 5185 5178 5170 5163 5149 5137 5130 5127 5122 5115 5106 5103 5097 5096 5093 5083 5083
5343 5336 5332 5331 5345 5355 5353 5348 5351 5347 5340 5330 5327 5322 5325 5312 5295 5275 5266 5263 5258 5251 5249 5248 5250 5247 5237 5227 5218 5211 5204 5199 5196 5187 5179 5171 5164 5157 5153 5148 5139 5127 5118 5111 5107 5104 5101 5097 5093 5090 5088 5088 5086 5082
5325 5325 5327 5319 5323 5329 5327 5328 5326 5322 5319 5312 5320 5301 5301 5297 5283 5267 5258 5248 5245 5240 5235 5231 5229 5225 5219 5210 5203 5196 5188 5180 5173 5168 5160 5152 5143 5134 5126 5118 5110 5103 5100 5094 5093 5089 5088 5086 5085 5084 5083 5080 5079 5076
5320 5318 5312 5297 5311 5305 5297 5303 5302 5291 5287 5304 5304 5291 5271 5257 5254 5248 5243 5240 5236 5232 5226 5219 5211 5205 5199 5193 5188 5181 5175 5168 5165 5155 5151 5146 5136 5122 5109 5104 5099 5093 5089 5086 5080 5077 5077 5076 5075 5074 5073 5072 5071 5068
5309 5314 5306 5294 5292 5286 5275 5281 5277 5277 5279 5282 5274 5262 5254 5243 5238 5236 5234 5232 5229 5223 5215 5208 5202 5199 5191 5185 5174 5164 5153 5145 5138 5136 5135 5127 5116 5102 5096 5091 5086 5081 5076 5075 5074 5073 5069 5068 5068 5066 5066 5065 5065 5063
5310 5312 5304 5292 5277 5271 5269 5268 5271 5273 5275 5273 5269 5262 5251 5238 5226 5219 5217 5214 5210 5205 5200 5193 5187 5182 5175 5169 5164 5155 5144 5126 5116 5110 5105 5100 5093 5088 5082 5076 5073 5070 5069 5067 5065 5064 5061 5061 5062 5060 5059 5056 5053 5048
5303 5302 5297 5284 5268 5263 5265 5273 5272 5269 5266 5261 5255 5249 5246 5243 5232 5216 5201 5202 5201 5196 5183 5184 5178 5168 5155 5145 5137 5128 5121 5113 5104 5097 5091 5086 5082 5075 5072 5069 5066 5064 5062 5060 5059 5057 5055 5053 5052 5051 5050 5048 5045 5041
5299 5298 5296 5290 5274 5274 5265 5277 5275 5262 5261 5254 5241 5236 5231 5235 5222 5204 5188 5184 5184 5183 5176 5166 5156 5146 5137 5130 5123 5114 5107 5098 5090 5084 5079 5074 5070 5067 5066 5065 5061 5059 5056 5055 5054 5052 5050 5048 5046 5045 5042 5039 5037 5034